This demonstration page uses our WeatherBlox Daily Observations layout. Learn more.

Left ArrowRight Arrow

Hourly Observations for August 16, 2015

Temp ( °F °C ) Dew Point ( °F °C ) Humidity (%) Winds ( mph kmh ) Pressure ( in mb ) Visibility ( mi km ) Precip ( " mm )
12:51 am 00:51 Clear 37 2.8 22 -5.6 54 54 S 7 11 30.06 1018 10 16 0.00 0.00
1:51 am 01:51 Clear 84 28.9 51 10.6 32 32 E 8 13 29.78 1008 10 16 0.00 0.00
2:51 am 02:51 Clear 81 27.2 51 10.6 35 35 ESE 8 13 29.79 1009 10 16 0.00 0.00
3:51 am 03:51 Clear 83 28.3 78 25.8 86 86 ESE 6 9 29.80 1009 10 16 0.00 0.00
4:51 am 04:51 Clear 84 28.9 53 11.7 34 34 E 10 17 29.81 1010 10 16 0.00 0.00
5:51 am 05:51 Sunny 81 27.2 53 11.7 38 38 E 8 13 29.83 1010 10 16 0.00 0.00
6:51 am 06:51 Sunny 83 28.3 54 12.2 37 37 Calm 29.83 1010 10 16 0.00 0.00
7:51 am 07:51 Sunny 86 30 55 12.8 35 35 N 3 6 29.86 1011 10 16 0.00 0.00
8:51 am 08:51 Sunny 91 32.8 55 12.8 30 30 VRB 5 7 30.06 1018 10 16 0.00 0.00
9:51 am 09:51 Sunny 93 33.9 54 12.2 27 27 WNW 8 13 29.85 1011 10 16 0.00 0.00
10:51 am 10:51 Sunny 92 33.3 61 16.1 36 36 WNW 13 20 29.95 1014 10 16 0.00 0.00
11:51 am 11:51 Sunny 89 31.7 65 18.3 45 45 W 15 24 30.07 1018 10 16 0.00 0.00
12:51 pm 12:51 Sunny 101 38.3 54 12.2 21 21 W 10 17 29.76 1008 10 16 0.00 0.00
1:51 pm 13:51 Sunny 104 40 54 12.2 19 19 WNW 14 22 29.71 1006 10 16 0.00 0.00
2:51 pm 14:51 Sunny 103 39.4 53 11.7 19 19 WNW 14 22 29.70 1006 10 16 0.00 0.00
3:51 pm 15:51 Sunny 101 38.3 51 10.6 19 19 NNE 16 26 29.66 1005 10 16 0.00 0.00
4:51 pm 16:51 Sunny 101 38.3 46 7.8 15 15 NNW 14 22 29.65 1004 10 16 0.00 0.00
5:51 pm 17:51 Mostly Sunny 98 36.7 51 10.6 20 20 NNW 12 19 29.66 1004 10 16 0.00 0.00
6:51 pm 18:51 Mostly Sunny 94 34.4 55 12.8 27 27 W 7 11 29.67 1005 10 16 0.00 0.00
7:51 pm 19:51 Partly Cloudy 92 33.3 56 13.3 30 30 SSE 9 15 29.72 1007 10 16 0.00 0.00
8:51 pm 20:51 Clear 88 31.1 59 15 38 38 ESE 7 11 29.73 1007 10 16 0.00 0.00
9:51 pm 21:51 Clear 86 30 59 15 40 40 Calm 29.75 1007 10 16 0.00 0.00
10:51 pm 22:51 Clear 83 28.3 59 15 44 44 E 3 6 29.75 1007 10 16 0.00 0.00
11:51 pm 23:51 Clear 82 27.8 59 15 46 46 NE 6 9 29.73 1007 10 16 0.00 0.00

Powered by AerisWeather